Wind_Speed
83 84 84 84 84 84 85 85 85 84 84 84 83 83 82 81 80 79 78 77 77 77 77 78 79 80 81 82 83 83 84 85 86 86 87 88 89 90 90 91 93 95 97 98 100 102 102 103 104 104 105 105 105 105 105 105 105 105 106 106 105 105 104 104 103 103 102 102 102 103 104 105 108 111 114 116 117 117 118 119 120 122 125 127 128 129
84 84 84 85 85 85 86 86 86 85 84 84 83 83 82 81 80 78 77 77 77 77 78 79 81 81 82 83 83 84 85 86 87 88 88 89 90 90 91 92 94 96 98 100 101 102 103 103 104 104 104 105 105 105 105 105 106 106 106 106 105 105 104 104 103 103 102 102 102 103 105 107 110 112 115 116 116 117 118 119 121 123 126 128 129 130
85 85 86 86 86 86 87 87 86 85 84 83 83 82 81 79 78 77 77 77 78 78 79 81 81 82 83 83 84 85 86 87 88 88 89 89 90 91 92 94 96 98 100 102 102 103 103 104 104 104 104 105 105 105 105 106 106 106 106 106 105 105 104 103 103 102 102 102 103 104 106 108 111 114 115 116 116 117 118 120 122 124 127 128 129 130
86 87 87 87 87 87 87 86 86 85 84 83 81 80 79 78 77 77 77 78 79 80 81 82 83 84 84 85 86 87 87 88 88 89 89 90 91 93 95 97 99 100 102 102 103 103 103 104 104 104 105 105 105 106 106 107 107 106 106 106 105 104 104 103 103 102 102 103 104 105 108 110 113 114 115 115 116 117 118 120 123 125 127 129 130 129
87 87 87 87 87 87 86 85 84 83 82 81 79 78 77 77 77 77 78 79 80 82 83 84 85 85 86 87 87 88 88 88 88 89 90 91 93 95 97 99 101 102 103 103 103 103 104 104 104 104 105 105 106 107 107 107 107 107 106 105 105 104 104 103 103 102 103 103 105 107 110 112 114 115 115 115 116 117 119 121 124 126 128 129 130 129
87 87 87 86 86 85 84 84 83 82 80 79 78 77 77 77 78 79 80 81 83 84 85 86 86 87 87 88 88 88 88 88 89 90 91 93 96 98 100 101 102 103 103 103 103 103 104 104 104 105 106 106 107 107 108 108 107 107 106 105 105 104 103 103 103 103 103 105 107 109 112 114 115 115 115 116 117 119 121 123 125 127 128 129 129 128
86 86 85 84 84 83 82 82 81 80 79 78 78 78 79 80 80 82 83 84 85 86 87 87 88 88 88 88 88 88 88 89 90 92 94 96 98 100 101 102 103 103 103 103 103 104 104 104 105 106 107 107 108 108 108 108 107 107 106 105 104 104 103 103 103 103 104 106 109 111 113 114 115 115 116 117 119 120 122 124 126 128 129 129 128 126
85 84 84 83 82 82 82 81 81 80 79 79 79 80 81 82 83 85 86 87 87 88 88 88 88 88 88 88 88 89 89 91 92 94 97 99 100 102 102 103 103 103 103 103 103 104 104 105 106 107 108 108 108 108 108 108 107 106 106 105 104 104 103 103 103 104 106 108 110 113 114 115 115 116 117 118 120 122 124 126 128 129 129 129 127 124
83 82 82 82 82 81 82 82 82 82 81 81 81 82 83 85 86 87 87 88 88 88 88 88 88 88 88 88 89 90 91 93 95 97 99 101 102 102 103 103 103 103 103 104 104 104 105 106 107 108 108 109 109 108 108 108 107 106 106 105 104 103 103 103 104 106 108 110 112 113 114 115 115 116 118 120 122 124 126 128 129 130 129 128 126 122
82 82 82 83 83 83 83 83 83 84 83 83 84 85 85 86 87 87 88 88 88 88 88 88 88 88 88 89 90 92 94 96 98 100 101 102 102 103 103 103 103 104 104 104 104 105 106 107 108 109 109 109 109 108 108 107 107 106 105 105 104 103 103 104 106 107 110 111 113 114 114 114 116 117 119 121 123 126 127 129 130 130 129 127 124 119
84 84 84 85 86 86 85 85 85 85 85 85 86 87 88 88 87 87 87 88 88 88 88 88 88 88 89 91 93 95 97 99 101 102 102 102 103 103 103 104 104 104 104 105 105 106 107 108 109 109 109 109 108 108 107 107 106 106 105 104 104 104 105 106 107 109 111 112 113 113 114 115 117 119 121 123 125 127 129 130 130 130 128 126 122 116
86 87 87 88 88 88 88 88 87 87 87 87 87 88 88 89 88 87 87 88 88 88 88 88 88 89 91 93 96 98 100 101 102 103 103 103 103 104 104 104 104 105 105 106 106 107 108 109 109 109 109 109 108 108 107 106 106 105 104 104 104 105 106 108 110 111 112 113 113 114 114 116 118 120 122 125 127 129 130 131 130 129 127 123 119 112
90 90 91 91 91 91 90 90 89 88 88 87 86 86 87 88 88 88 88 88 88 88 88 88 89 91 93 96 98 100 102 103 103 103 103 104 104 104 104 105 105 105 106 107 108 109 109 109 110 109 109 108 108 107 107 106 105 104 104 104 105 106 108 110 111 112 113 113 114 114 115 117 120 122 124 127 129 130 131 131 130 128 125 121 115 108
94 94 94 94 93 93 92 91 90 89 87 86 86 86 87 88 88 88 88 89 88 88 88 89 91 94 97 99 101 102 103 104 104 104 104 104 104 104 105 105 106 107 107 108 109 110 110 110 109 109 109 108 107 107 106 105 105 104 105 105 107 108 110 111 112 113 113 114 114 115 117 119 122 124 126 128 130 131 131 131 129 126 122 117 110 103
98 97 96 96 95 94 93 91 89 87 86 85 85 86 86 87 88 88 88 89 89 89 90 92 95 97 100 102 103 103 104 104 104 104 104 104 104 105 105 106 107 108 109 110 110 110 110 110 109 109 108 108 107 106 105 105 105 105 106 107 109 110 111 112 113 113 114 114 115 117 119 121 124 126 128 130 131 132 131 129 127 124 119 113 105 97
100 98 97 96 94 93 91 88 86 84 84 84 85 86 86 87 88 89 89 90 90 91 93 96 98 101 103 104 104 104 104 104 104 104 105 105 105 105 106 107 108 110 111 111 111 111 110 110 109 108 108 107 106 105 105 105 105 106 108 109 110 111 112 113 113 114 114 116 117 119 122 124 126 128 130 131 132 131 130 128 124 120 115 108 100 92
99 97 95 93 91 88 87 85 84 83 84 85 86 87 87 88 89 89 90 91 92 94 97 99 101 103 104 104 104 104 104 104 104 104 105 105 106 107 108 109 110 111 112 112 111 111 110 109 109 108 107 106 105 105 105 106 107 108 109 111 111 112 113 113 114 115 116 118 120 122 124 127 129 131 132 132 132 130 128 125 121 116 110 102 95 87
95 92 90 87 85 84 84 83 83 84 85 86 87 88 89 89 90 91 92 94 96 98 100 102 103 104 104 104 104 104 103 104 104 105 105 106 108 109 110 111 112 112 112 112 111 111 110 109 108 107 106 105 105 106 106 107 109 110 111 111 112 113 113 114 115 116 118 120 122 125 127 129 131 132 133 132 131 129 126 122 117 111 104 97 89 82
89 87 85 83 83 83 83 84 84 85 86 87 88 89 90 91 92 93 95 97 99 101 103 103 104 104 104 104 104 104 103 103 104 105 107 108 110 111 112 112 113 113 113 112 111 110 109 108 107 106 106 106 106 107 108 109 110 111 112 112 113 113 114 115 117 118 121 123 125 128 130 132 133 133 132 131 129 126 122 118 112 106 98 91 84 78
84 83 82 82 83 83 84 85 86 86 87 88 89 90 91 93 95 97 99 101 102 103 103 103 103 103 103 103 103 104 104 104 106 107 109 111 112 113 114 113 113 113 112 111 110 109 108 107 106 106 106 107 108 109 110 110 111 112 112 113 113 114 116 117 119 121 124 126 129 131 133 134 134 133 131 129 126 123 118 113 107 100 93 86 80 74
82 82 83 83 84 84 85 87 87 88 89 90 91 93 95 97 98 100 102 103 103 103 103 103 103 103 103 103 103 104 105 106 108 110 112 113 114 115 115 114 113 112 111 110 109 108 107 106 106 107 107 108 109 110 111 111 112 112 113 114 115 116 118 120 122 125 127 130 132 133 134 134 133 131 129 126 123 119 113 107 101 94 88 81 76 71
83 84 85 86 86 87 88 89 90 91 92 93 95 97 98 100 101 102 103 103 103 103 103 103 103 103 103 104 105 106 108 110 111 113 114 115 115 116 115 114 112 111 110 109 108 107 107 107 107 108 108 109 110 111 111 112 112 113 114 115 117 119 121 123 125 128 131 133 134 135 134 133 132 129 126 123 118 113 108 101 95 89 83 77 73 69
86 87 88 89 90 91 92 93 94 95 96 97 98 100 101 101 102 102 103 103 103 103 102 103 103 104 105 106 108 110 112 113 114 115 115 115 116 115 114 113 111 110 109 109 108 108 108 108 109 109 109 110 110 111 112 112 113 114 116 117 119 122 124 127 129 131 133 134 135 134 133 131 129 126 122 118 113 107 101 95 89 83 78 74 70 66
89 90 91 92 93 94 95 96 97 98 99 99 100 101 101 102 102 102 102 102 102 102 103 103 105 106 108 110 112 113 114 115 116 115 115 115 115 114 113 111 110 109 109 109 109 109 109 109 110 110 110 111 111 112 113 114 115 116 118 120 123 125 128 130 132 134 135 135 134 133 131 129 125 122 117 112 107 101 95 89 84 79 74 70 67 63
91 92 93 94 95 96 97 98 99 99 100 100 101 101 101 101 101 101 101 102 102 103 104 106 108 110 112 113 114 115 116 117 116 115 114 114 113 113 112 111 110 109 109 110 110 110 110 110 111 111 111 112 112 113 114 115 117 119 121 124 126 129 131 133 135 135 135 134 133 130 128 125 121 117 112 106 100 95 89 84 79 75 71 67 64 61
94 95 95 96 97 98 99 99 100 100 100 100 100 101 101 101 101 101 102 103 104 105 107 109 111 113 114 115 116 117 117 117 116 114 113 112 112 112 111 111 110 110 110 110 110 110 111 111 112 112 112 113 114 115 116 118 120 123 125 128 130 132 134 135 136 135 134 132 130 127 124 120 115 110 105 100 94 89 84 79 75 71 68 64 61 58
96 97 98 99 99 100 100 101 101 101 100 100 100 100 100 101 101 103 104 106 107 109 111 112 114 115 116 117 117 117 116 116 115 113 112 111 111 111 111 111 110 110 110 111 111 111 112 112 112 113 114 115 116 117 119 122 124 127 129 131 133 135 136 136 135 134 131 129 126 122 118 114 109 104 99 93 88 83 79 75 72 68 65 62 59 56
99 100 101 101 101 101 101 101 101 101 100 100 100 100 101 102 103 105 107 109 111 112 114 115 116 117 117 117 117 116 116 114 113 112 111 111 110 111 111 111 110 110 111 111 112 112 113 113 114 114 115 117 119 121 123 126 128 130 133 134 135 136 136 135 133 131 128 125 121 117 112 107 102 97 92 87 83 79 75 72 68 65 62 59 56 54
102 102 102 102 102 102 101 101 100 100 100 101 101 102 103 105 106 108 111 112 114 115 116 117 117 117 117 116 116 115 115 114 113 112 111 110 110 111 111 111 111 111 111 112 113 114 114 115 115 117 118 121 123 125 128 130 132 134 135 136 136 136 134 132 130 127 123 119 115 110 106 101 95 91 86 82 78 75 71 68 66 63 60 57 54 52
103 103 103 102 102 101 101 101 101 101 101 102 104 105 107 109 110 112 114 115 116 116 117 117 117 116 116 115 115 114 114 113 113 112 111 110 110 111 111 111 111 112 112 112 113 115 116 118 119 120 122 125 127 129 132 134 135 136 137 136 135 134 131 128 125 121 117 113 108 104 99 94 89 85 81 77 74 71 68 65 63 60 57 55 52 50
103 103 103 102 101 101 101 101 102 103 104 106 107 109 111 112 113 115 115 116 116 116 116 116 116 115 115 114 113 113 113 113 113 112 110 110 110 111 111 112 112 113 113 113 114 116 118 121 123 125 127 129 131 133 135 136 137 137 136 135 133 130 127 123 119 115 111 106 101 97 92 88 84 80 77 74 71 68 65 63 60 58 55 53 51 49
103 102 102 102 102 102 103 104 105 106 108 110 111 113 114 115 115 116 116 116 116 116 116 115 115 115 114 113 113 113 113 113 112 112 111 110 111 112 112 112 113 114 115 115 116 118 121 124 127 129 131 133 135 136 137 138 137 136 135 132 129 125 122 117 113 108 104 99 94 90 86 82 79 76 73 71 68 65 63 60 58 55 53 51 49 47
103 103 103 103 104 104 106 107 109 110 112 113 114 115 115 116 116 116 116 116 116 115 115 114 114 114 114 113 113 112 112 112 112 112 111 111 112 113 113 114 114 116 117 119 121 123 125 128 130 133 135 136 137 138 138 138 136 134 131 127 123 119 115 110 106 101 97 92 88 85 81 78 75 73 70 68 65 63 61 58 56 54 52 50 48 46
104 104 105 105 107 108 109 111 112 114 115 115 116 116 117 117 117 117 116 116 115 115 114 114 113 113 113 113 112 112 112 113 112 112 112 112 113 114 115 116 117 119 120 123 125 128 130 132 134 136 138 139 139 139 138 136 133 130 126 121 117 112 108 103 98 94 90 86 83 80 77 74 72 70 67 65 63 61 59 56 54 52 50 48 47 45
106 107 108 109 110 112 113 114 115 116 116 117 117 118 117 117 117 116 115 115 114 114 114 113 113 112 112 112 112 112 113 114 114 114 113 114 114 116 117 119 120 122 125 127 129 132 134 136 138 139 139 140 139 138 136 133 128 124 119 114 109 104 100 96 92 88 85 82 79 76 74 72 69 67 65 63 61 59 57 55 53 51 49 47 46 44
108 110 111 113 114 115 116 117 117 117 118 118 118 118 117 117 116 115 115 114 114 113 113 113 112 112 112 112 112 113 114 114 115 115 115 116 117 118 120 123 125 127 129 131 133 135 137 139 140 141 140 139 137 135 132 127 122 117 111 106 102 97 93 90 86 83 81 78 76 73 71 69 67 65 63 61 59 58 56 54 52 50 48 46 45 44
112 114 115 116 117 117 118 118 118 118 118 118 118 117 116 115 115 114 114 113 113 113 113 112 112 112 113 113 113 114 114 115 116 117 118 119 120 122 124 127 129 131 133 135 137 138 140 140 141 141 139 137 134 130 125 120 114 109 104 99 95 91 88 85 82 80 77 75 73 71 69 67 65 63 62 60 58 56 55 53 51 49 47 46 44 43
116 117 117 118 118 118 118 118 118 118 118 117 116 115 115 114 114 113 113 113 113 113 113 113 113 113 113 114 114 115 116 117 118 119 121 123 125 127 129 131 133 135 136 138 139 140 140 140 140 138 136 133 128 123 118 112 107 102 98 93 90 86 84 81 79 77 75 73 71 69 67 66 64 62 61 59 57 56 54 52 50 48 47 45 44 43
117 118 118 118 118 118 118 117 117 117 116 115 114 114 114 113 113 113 113 113 113 113 113 113 114 114 115 115 116 117 118 119 121 123 125 127 129 131 133 134 136 138 139 140 140 140 139 138 136 134 130 126 121 115 110 105 100 96 92 89 86 83 80 78 76 74 73 71 69 68 66 64 63 61 60 58 57 55 53 52 50 48 46 45 43 42
117 117 117 117 117 117 116 116 115 115 114 114 114 114 113 113 113 113 113 113 113 114 114 114 115 115 116 117 118 119 121 123 125 127 129 131 133 135 136 137 139 140 140 141 140 139 137 134 131 127 123 118 112 107 103 99 95 91 88 86 83 80 78 76 74 73 71 69 68 67 65 64 62 61 59 57 56 54 53 51 50 48 46 45 43 42
116 116 116 116 116 115 115 114 114 114 114 113 113 113 114 114 114 114 114 114 115 115 115 116 116 117 119 120 122 123 125 127 129 131 133 135 136 138 139 140 140 140 140 139 138 136 132 128 124 119 114 110 105 101 97 94 91 88 85 83 81 78 76 74 73 71 70 68 67 66 64 63 61 60 59 57 56 54 52 51 49 48 46 45 43 42
116 116 116 115 115 114 114 114 113 113 113 113 113 114 114 114 114 114 115 115 116 117 117 118 119 120 122 124 126 128 130 132 133 135 136 138 139 140 140 140 140 139 138 136 134 130 126 121 116 111 107 103 99 96 93 90 88 85 83 81 79 77 75 73 72 70 69 68 66 65 63 62 61 60 58 57 55 54 52 51 49 48 46 45 43 42
115 115 114 114 114 113 113 113 113 113 114 114 114 114 115 115 115 116 116 117 118 119 120 121 123 124 126 128 130 132 134 136 137 138 139 140 140 141 140 140 139 137 135 131 127 123 118 113 108 104 101 97 95 92 90 88 86 84 82 79 77 76 74 73 71 69 68 67 66 64 63 62 60 59 58 57 55 54 52 51 49 48 46 45 44 43
114 114 114 113 113 113 113 113 113 114 114 114 115 115 116 117 117 118 119 120 122 123 124 126 127 129 130 132 134 136 137 139 140 140 141 141 140 140 139 138 136 133 129 125 120 115 110 106 102 99 96 94 92 90 88 86 84 82 80 78 76 75 73 72 70 69 67 66 65 64 62 61 60 59 58 56 55 54 52 51 50 48 46 45 44 43
114 114 114 114 113 113 114 114 114 115 115 116 116 117 118 119 120 121 123 124 126 127 129 130 132 133 134 136 137 138 139 140 140 141 141 140 139 138 136 134 131 127 122 117 112 108 104 101 98 96 94 92 90 88 86 84 83 81 79 77 76 74 72 71 69 68 67 66 64 63 62 61 60 59 58 56 55 54 52 51 50 48 47 45 44 43
114 114 114 114 114 115 115 116 116 117 117 118 119 120 122 123 124 125 127 128 130 131 133 134 135 136 137 138 139 139 140 140 140 140 139 138 137 135 132 129 124 119 114 110 106 102 100 97 96 94 92 90 89 87 85 83 82 80 78 77 75 73 72 70 69 67 66 65 64 63 62 60 59 58 57 56 55 54 52 51 50 48 47 46 44 44
115 115 116 116 116 117 117 118 119 120 121 122 123 124 126 127 128 129 131 132 133 135 136 137 137 138 138 139 139 139 139 138 138 138 137 135 133 130 126 121 116 112 107 104 101 99 97 95 93 92 90 89 88 86 84 83 81 79 78 76 74 73 71 70 68 67 66 64 63 63 61 60 59 58 57 56 55 54 52 51 50 49 47 46 45 44
117 117 118 119 119 120 121 122 123 123 124 126 127 128 130 131 132 133 134 135 136 137 138 139 139 139 139 139 139 138 138 136 136 135 133 130 127 123 118 113 109 106 103 100 98 97 95 93 92 90 89 88 87 86 84 82 81 79 77 76 74 72 71 70 68 67 65 64 63 62 61 60 59 58 57 56 55 54 53 51 50 49 48 46 46 45
119 120 121 122 123 124 125 126 127 127 128 130 131 132 133 134 135 136 137 138 138 139 139 139 139 139 139 138 138 137 136 134 133 130 127 124 119 115 111 107 104 102 100 98 97 95 94 92 91 89 88 87 86 85 84 82 80 79 77 75 74 72 71 69 68 67 65 64 63 62 61 60 59 58 57 56 55 54 53 52 51 50 48 47 46 45
123 124 125 126 127 128 129 130 131 131 132 133 134 135 136 137 138 138 139 139 139 139 139 139 139 138 137 137 136 135 133 131 128 124 120 116 112 108 105 103 101 99 98 97 95 94 93 92 90 89 88 86 85 84 83 82 80 79 77 76 74 72 71 69 68 67 65 64 63 62 61 60 59 58 57 56 55 54 53 52 51 50 49 48 47 46
127 128 129 130 131 132 133 133 134 135 136 136 137 138 138 139 139 140 140 139 139 139 139 138 138 137 135 134 133 131 128 125 121 117 113 109 106 103 102 100 99 98 97 96 95 93 92 91 90 89 88 86 85 83 82 81 80 78 77 76 74 72 71 69 68 67 65 64 63 62 61 60 59 58 57 56 55 54 53 52 51 51 50 48 47 46
Wind_Direction
285 286 287 287 288 289 290 291 292 292 293 294 294 295 295 296 296 296 296 296 295 294 293 292 292 292 292 293 293 294 295 295 296 296 297 298 298 299 300 301 302 303 304 306 307 308 309 310 311 313 314 315 316 317 318 319 320 320 320 321 321 321 321 321 321 321 321 321 321 321 321 321 321 322 323 324 325 325 326 326 326 327 328 328 329 330
285 286 287 288 289 290 290 291 291 292 293 294 294 295 296 296 296 296 295 294 293 292 292 291 291 292 292 293 293 294 295 295 296 296 297 298 298 299 300 301 302 304 305 306 307 308 309 311 312 313 314 316 317 317 318 319 319 319 320 320 320 320 321 321 321 320 320 320 320 320 320 320 321 322 323 324 324 325 325 326 326 327 327 328 329 329
285 286 287 288 289 290 291 291 292 292 293 294 295 295 296 296 295 295 294 293 292 291 291 291 291 292 292 293 294 294 295 295 296 296 297 298 298 299 300 302 303 304 306 307 308 309 310 312 313 314 315 316 317 317 318 318 318 319 319 319 320 320 320 320 320 319 319 319 319 319 319 320 321 322 323 323 324 324 325 325 326 326 327 328 328 329
286 287 288 289 290 290 291 291 292 293 294 295 296 296 295 295 294 293 292 291 291 291 291 291 291 292 292 293 294 294 295 295 296 297 297 298 299 300 301 303 304 305 306 308 309 310 311 312 313 314 315 316 316 317 317 317 318 318 318 319 319 319 319 319 319 318 318 318 318 318 319 319 320 321 322 323 323 324 324 325 325 326 326 327 328 328
287 288 289 290 291 291 292 292 293 294 295 296 296 295 294 293 292 291 290 290 290 290 291 291 291 292 292 293 294 295 295 296 296 297 298 299 300 301 302 304 305 306 307 308 310 311 312 312 313 314 315 315 316 316 316 317 317 318 318 318 318 318 318 318 318 318 317 317 317 318 318 319 320 321 322 322 323 323 324 324 325 325 326 327 327 328
289 290 291 291 292 292 292 293 294 295 296 296 295 294 292 291 290 290 289 290 290 290 291 291 292 292 293 294 294 295 295 296 297 298 299 300 301 302 303 305 306 307 308 309 310 311 312 313 313 314 314 315 315 315 316 316 317 317 317 317 317 317 317 317 317 317 317 317 317 317 318 319 320 321 321 322 322 323 323 324 324 325 326 326 327 327
290 291 291 292 292 292 293 293 294 295 295 294 293 292 290 289 289 289 289 289 290 290 291 291 292 293 293 294 295 295 296 297 298 299 300 301 302 303 305 306 307 308 309 310 311 311 312 312 313 313 314 314 314 315 315 316 316 316 316 316 316 316 316 316 316 316 316 316 316 317 318 319 319 320 321 321 322 322 323 323 324 325 325 326 326 327
292 292 292 292 292 292 293 293 294 294 293 293 291 290 289 289 289 289 289 289 290 290 291 292 293 294 294 295 295 296 297 298 298 300 301 302 303 304 306 307 308 309 309 310 310 311 311 312 312 313 313 313 314 314 315 315 315 315 315 315 315 315 315 315 315 315 315 315 316 317 318 318 319 320 320 320 321 321 322 323 324 324 325 325 326 326
292 291 291 291 291 291 292 292 292 292 292 291 290 289 289 289 289 289 290 290 291 291 292 293 294 294 295 295 296 296 297 298 299 301 302 303 304 306 307 307 308 309 309 310 310 310 311 311 312 312 312 313 313 314 314 314 314 314 315 315 315 314 314 314 314 314 314 315 316 316 317 318 318 319 319 320 320 321 322 322 323 324 324 325 325 325
291 290 290 289 290 290 291 291 291 291 291 290 289 289 289 289 289 290 290 291 291 292 293 294 294 295 295 296 296 297 298 299 301 302 303 304 305 306 307 307 308 308 309 309 309 309 310 310 311 311 312 312 313 313 313 313 313 314 314 314 314 313 313 313 313 313 314 315 315 316 317 317 318 318 319 319 320 321 321 322 323 323 324 324 324 325
289 288 288 288 289 289 290 290 290 290 290 290 290 289 289 289 290 290 291 292 292 293 293 294 294 295 295 296 297 298 299 300 302 303 304 305 305 306 307 307 307 307 308 308 308 309 309 310 310 311 311 312 312 312 312 312 313 313 313 313 313 312 312 312 313 313 314 314 315 316 316 317 317 317 318 319 319 320 321 322 322 323 323 323 324 324
287 287 287 287 288 289 289 289 290 290 290 289 289 289 290 290 290 291 291 292 292 293 293 294 294 294 295 296 298 299 300 301 302 303 304 304 305 305 306 306 306 306 307 307 308 308 309 309 310 310 311 311 311 311 312 312 312 312 312 312 312 312 312 312 312 313 313 314 315 315 316 316 316 317 318 318 319 320 320 321 322 322 322 323 323 323
286 286 286 287 287 288 288 289 289 289 289 289 289 289 289 290 290 291 291 291 292 292 292 293 293 294 295 297 298 299 300 301 302 302 303 304 304 304 305 305 305 306 306 307 307 308 309 309 310 310 310 310 311 311 311 311 311 311 311 311 311 311 311 311 312 312 313 314 314 315 315 315 316 317 317 318 319 319 320 321 321 321 322 322 322 322
285 285 286 286 287 287 288 288 288 288 288 288 288 288 288 289 289 290 290 290 290 290 291 292 293 294 295 297 298 299 299 300 301 302 302 303 303 304 304 304 305 305 306 306 307 308 308 309 309 309 309 310 310 310 310 310 310 310 310 310 310 310 310 311 311 312 312 313 313 314 314 315 316 316 317 318 318 319 319 320 320 321 321 321 321 320
284 285 285 286 286 286 287 287 287 287 287 287 287 287 287 287 287 287 287 288 288 289 290 291 293 294 295 296 297 298 299 300 300 301 301 302 302 303 303 304 304 305 306 306 307 308 308 308 308 309 309 309 309 309 309 309 309 309 309 309 309 310 310 311 311 312 312 312 313 313 314 314 315 316 317 317 318 318 319 319 320 320 320 320 320 319
283 284 284 285 285 285 286 286 286 286 285 285 285 285 284 285 285 285 285 286 287 288 290 291 292 294 295 296 297 298 298 299 300 300 301 301 302 302 303 303 304 305 306 306 307 307 307 308 308 308 308 308 308 308 308 308 308 308 308 308 309 309 310 310 311 311 311 312 312 313 314 314 315 316 316 317 317 318 318 319 319 319 319 319 318 318
282 283 283 284 284 284 284 284 284 283 283 282 282 282 282 282 283 283 284 285 286 288 290 291 292 293 295 296 296 297 298 299 299 300 300 301 301 302 303 303 304 305 305 306 306 306 307 307 307 307 307 308 308 307 307 307 307 307 308 308 308 309 309 310 310 311 311 312 312 313 313 314 315 315 316 316 317 317 318 318 318 318 318 318 317 316
281 282 282 282 282 282 282 282 281 281 281 280 280 280 281 281 282 283 284 285 287 288 290 291 292 293 294 295 296 297 297 298 298 299 299 300 301 302 303 303 304 304 305 305 306 306 306 306 307 307 307 307 307 306 306 306 307 307 307 308 308 309 309 309 310 310 311 311 312 312 313 314 314 315 316 316 316 317 317 317 317 317 317 317 316 315
280 280 281 280 280 280 280 279 279 279 279 279 279 280 280 281 282 283 285 286 287 289 290 291 292 293 294 295 295 296 297 297 298 298 299 300 301 302 303 303 304 304 304 305 305 305 306 306 306 306 306 306 306 305 306 306 306 307 307 308 308 308 309 309 309 310 310 311 312 312 313 314 314 315 315 316 316 316 316 316 316 316 316 315 314 313
279 279 279 278 278 278 278 278 278 278 278 279 279 280 281 282 283 284 286 287 288 289 291 291 292 293 294 294 295 295 296 297 298 298 299 300 301 302 302 303 303 304 304 304 305 305 305 305 305 305 305 305 305 305 305 306 306 306 307 307 308 308 308 309 309 310 310 311 311 312 313 313 314 314 315 315 315 315 315 315 315 315 314 314 313 312
277 277 277 277 277 277 277 277 278 278 278 279 280 280 281 283 284 285 286 288 289 290 291 291 292 293 293 294 294 295 296 297 298 298 299 300 301 301 302 302 303 303 303 304 304 304 304 304 304 304 304 304 304 304 305 305 306 306 306 307 307 308 308 308 309 310 310 311 311 312 313 313 314 314 314 314 314 314 314 314 314 314 313 312 311 310
276 276 276 276 276 276 277 277 278 278 279 279 280 281 282 284 285 286 287 288 289 290 291 291 291 292 293 293 294 295 296 297 298 299 299 300 301 301 302 302 303 303 303 303 303 303 303 303 303 303 303 303 304 304 305 305 305 306 306 306 307 307 308 308 309 310 310 311 311 312 312 313 313 313 314 314 314 314 313 313 313 312 312 311 310 309
274 275 275 276 276 277 277 278 278 279 280 280 281 282 283 285 286 287 288 288 289 290 290 290 291 292 292 293 294 295 296 297 298 299 299 300 300 301 302 302 302 302 302 302 302 302 302 302 302 302 303 303 303 304 304 304 305 305 306 306 307 307 308 308 309 310 310 311 311 312 312 312 313 313 313 313 313 313 312 312 312 311 310 309 308 307
274 275 275 276 277 277 278 279 279 280 281 282 282 283 284 285 286 287 288 288 289 289 290 290 291 292 293 294 295 296 296 297 298 299 299 300 300 301 301 302 302 301 301 301 301 301 302 302 302 302 302 303 303 303 304 304 304 305 305 306 306 307 308 308 309 310 310 311 311 311 312 312 312 312 312 312 312 311 311 311 310 309 309 308 307 305
274 275 276 277 278 278 279 280 280 281 282 283 283 284 285 286 286 287 287 288 288 289 290 290 291 292 293 294 295 296 297 298 298 299 299 300 300 300 301 301 301 301 300 301 301 301 301 301 301 302 302 302 302 303 303 304 304 305 305 306 306 307 308 309 309 310 310 310 311 311 311 311 311 311 311 311 311 310 310 309 309 308 307 306 305 304
275 276 277 278 278 279 280 280 281 282 282 283 284 284 285 286 286 287 287 288 288 289 290 291 292 293 294 295 296 296 297 298 298 299 299 299 300 300 300 300 300 300 300 300 300 300 300 300 301 301 301 302 302 303 303 303 304 305 305 306 307 307 308 309 309 309 310 310 310 310 310 310 310 310 310 310 309 309 309 308 307 306 306 304 303 302
276 277 278 278 279 279 280 281 281 282 282 283 284 284 285 285 286 286 287 288 289 290 291 292 293 293 294 295 296 296 297 297 298 298 299 299 299 299 299 299 299 299 299 299 299 299 299 300 300 301 301 301 302 302 303 303 304 305 305 306 307 308 308 309 309 309 309 310 310 310 310 310 309 309 309 309 308 308 307 307 306 305 304 303 302 300
276 277 278 278 279 279 280 280 281 282 282 283 283 284 284 285 286 287 288 289 290 291 292 292 293 294 294 295 296 296 297 297 297 298 298 298 298 298 298 298 298 298 298 298 299 299 299 299 299 300 301 301 302 302 303 303 304 305 306 307 307 308 308 309 309 309 309 309 309 309 309 309 308 308 308 307 307 306 306 305 305 304 303 301 300 299
277 277 278 278 279 279 279 280 280 281 282 282 283 284 285 286 286 287 288 289 290 291 292 293 293 294 294 295 295 296 296 296 297 297 297 297 297 297 297 297 297 297 297 298 298 298 299 299 299 300 301 301 302 302 303 304 305 305 306 307 307 308 308 308 308 308 308 308 308 308 308 308 307 307 307 306 306 305 305 304 303 302 301 300 299 297
276 277 277 278 278 278 279 279 280 281 281 282 283 284 285 286 287 288 289 290 291 291 292 293 293 294 294 295 295 295 296 296 296 296 296 296 296 296 296 296 296 297 297 297 297 298 298 299 299 300 301 301 302 303 304 304 305 306 307 307 307 308 308 308 308 308 308 307 307 307 307 306 306 306 305 305 305 304 303 303 302 301 300 299 297 295
275 276 276 277 277 278 278 279 280 281 282 283 284 285 286 287 288 288 289 290 291 291 292 293 293 293 294 294 294 295 295 295 295 296 296 295 295 295 296 296 296 296 297 297 297 297 298 299 300 300 301 302 302 303 304 305 306 306 307 307 307 307 307 307 307 307 307 307 306 306 306 305 305 305 304 304 303 303 302 302 301 300 299 297 296 294
275 275 275 276 276 277 278 279 280 281 282 283 284 286 286 287 288 289 290 290 291 291 292 292 293 293 293 294 294 294 294 294 295 295 295 294 294 295 295 295 295 296 296 297 297 297 298 299 300 300 301 302 303 304 305 305 306 306 307 307 307 307 307 307 306 306 306 306 305 305 305 304 304 304 303 303 302 302 301 300 299 299 298 296 294 293
274 274 275 275 276 277 278 280 281 282 283 284 285 286 287 288 288 289 290 290 291 291 292 292 292 293 293 293 293 293 293 293 294 294 294 294 294 294 294 295 295 295 296 297 297 298 298 299 300 301 302 303 304 304 305 306 306 306 306 307 306 306 306 306 306 305 305 305 304 304 303 303 303 303 302 302 301 301 300 299 299 298 296 295 293 291
273 274 274 276 277 278 279 280 282 283 284 285 286 286 287 288 289 289 290 290 290 291 291 291 292 292 292 292 292 293 292 293 293 293 293 293 293 293 294 294 295 295 296 297 297 298 299 300 301 302 302 303 304 305 305 306 306 306 306 306 306 306 305 305 305 304 304 304 303 303 303 302 302 302 301 301 300 299 299 298 298 297 295 294 292 290
273 274 275 276 278 279 280 281 282 283 284 285 286 287 288 288 289 289 289 290 290 290 291 291 291 291 291 291 291 292 292 292 292 293 293 293 293 293 294 294 295 296 296 297 298 299 300 301 301 302 303 304 304 305 305 306 306 306 306 305 305 305 304 304 304 303 303 303 302 302 302 301 301 300 300 300 299 299 298 297 297 296 294 293 291 289
273 275 276 277 279 280 281 282 283 284 285 286 286 287 288 288 288 289 289 289 289 290 290 290 290 290 290 290 290 291 291 291 292 292 292 293 293 293 294 295 296 296 297 298 299 300 301 301 302 303 304 304 304 305 305 305 305 305 305 305 304 304 304 303 303 302 302 302 301 301 301 300 300 299 299 299 298 298 297 297 296 295 294 292 290 288
275 276 277 279 280 281 282 283 284 284 285 286 286 287 287 288 288 288 288 289 289 289 289 289 289 289 290 290 290 290 290 291 291 292 292 293 293 294 295 295 296 297 298 299 300 300 301 302 303 303 304 304 304 305 305 305 305 305 304 304 304 303 303 302 302 302 301 301 301 300 300 299 299 299 298 298 297 297 296 296 295 294 293 291 289 287
276 277 278 279 280 281 282 283 284 285 285 286 286 286 287 287 287 287 288 288 288 288 288 288 289 289 289 289 290 290 290 291 291 292 292 293 294 294 295 296 297 298 298 299 300 301 302 302 303 303 304 304 304 304 304 304 304 304 303 303 303 302 302 302 302 301 301 300 300 299 299 299 298 298 297 297 296 296 295 295 294 293 292 290 288 286
277 278 279 280 281 282 283 284 284 285 285 285 286 286 286 286 286 287 287 287 287 287 287 288 288 288 289 289 289 290 290 291 291 292 293 293 294 295 296 297 297 298 299 300 301 302 302 303 303 303 304 304 304 304 304 304 303 303 303 302 302 302 302 301 301 300 300 299 299 298 298 298 297 297 296 296 296 295 294 294 293 292 291 289 287 285
278 279 280 281 282 282 283 283 284 284 284 285 285 285 285 285 286 286 286 286 286 287 287 287 287 288 288 289 289 290 290 291 292 292 293 294 295 295 296 297 298 299 300 301 301 302 302 303 303 303 303 303 303 303 303 303 302 302 302 302 302 302 301 301 300 300 299 299 298 298 297 297 296 296 296 295 295 294 294 293 292 291 290 288 286 284
279 280 280 281 282 282 282 283 283 283 283 284 284 284 284 285 285 285 285 286 286 286 286 287 287 288 288 289 289 290 291 291 292 293 294 294 295 296 297 298 299 300 300 301 301 302 302 302 303 303 303 302 302 302 302 302 302 302 302 302 301 301 301 300 300 299 299 298 297 297 296 296 296 295 295 294 294 293 292 292 291 290 289 287 285 282
279 280 280 281 281 281 282 282 282 282 283 283 283 283 284 284 284 284 285 285 285 286 286 287 287 288 288 289 290 291 291 292 293 293 294 295 296 297 298 298 299 300 301 301 302 302 302 302 302 302 302 302 302 302 301 301 301 301 301 301 301 301 301 300 299 299 298 297 297 296 296 295 295 295 294 293 293 292 291 291 290 289 287 286 284 281
279 280 280 280 280 280 281 281 281 281 282 282 282 283 283 283 284 284 284 285 285 286 286 287 288 288 289 290 290 291 292 292 293 294 295 296 296 297 298 299 300 300 301 301 301 302 302 302 301 301 301 301 301 301 301 301 301 301 301 301 301 301 300 300 299 298 297 297 296 296 295 295 294 294 293 293 292 291 291 290 289 288 286 285 283 281
278 279 279 279 279 280 280 280 280 281 281 281 282 282 282 283 283 284 284 285 285 286 287 287 288 289 289 290 291 291 292 293 294 295 295 296 297 298 299 299 300 301 301 301 301 301 301 301 301 301 301 301 301 301 301 301 301 301 301 301 301 300 300 299 299 298 297 296 296 295 295 294 293 293 292 291 291 290 289 289 288 287 285 284 282 280
278 278 278 278 278 279 279 279 280 280 280 281 281 282 282 283 283 284 284 285 286 286 287 288 288 289 290 290 291 292 293 294 294 295 296 297 298 298 299 300 300 301 301 301 301 301 300 300 300 300 300 300 300 300 300 301 301 301 301 300 300 300 299 299 298 297 297 296 295 295 294 293 293 292 291 290 290 289 288 288 287 285 284 282 281 279
277 277 277 277 278 278 278 279 279 280 280 281 281 282 282 283 284 284 285 285 286 287 287 288 289 289 290 291 292 293 293 294 295 296 297 297 298 299 299 300 300 300 300 300 300 300 300 300 300 300 300 300 300 300 300 300 301 300 300 300 300 299 299 298 298 297 296 295 295 294 293 292 292 291 290 289 289 288 287 286 285 284 283 281 279 277
276 276 276 277 277 278 278 279 279 280 280 281 281 282 283 283 284 284 285 286 286 287 288 289 289 290 291 292 292 293 294 295 296 296 297 298 299 299 299 300 300 300 300 300 300 299 300 300 300 300 300 300 300 300 300 300 300 300 300 300 300 299 298 298 297 296 296 295 294 293 292 292 291 290 289 289 288 287 286 285 284 283 281 280 278 276
275 276 276 277 277 278 278 279 279 280 280 281 282 282 283 284 284 285 286 286 287 288 288 289 290 291 291 292 293 294 295 295 296 297 297 298 298 299 299 299 299 299 299 299 299 299 299 299 299 299 300 300 300 300 300 300 300 300 300 299 299 298 298 297 297 296 295 294 293 292 292 291 290 289 288 287 287 286 285 284 283 281 280 278 277 275
275 276 276 277 277 278 278 279 280 280 281 281 282 283 283 284 285 285 286 287 287 288 289 290 290 291 292 293 294 294 295 296 296 297 297 298 298 298 299 299 299 299 299 299 299 299 299 299 299 299 299 300 300 300 300 300 300 300 299 299 298 298 297 297 296 295 294 293 292 292 291 290 289 288 287 286 285 284 283 282 281 280 278 277 275 274
275 276 276 277 278 278 279 279 280 281 281 282 283 283 284 284 285 286 287 287 288 289 290 290 291 292 292 293 294 295 295 296 297 297 297 298 298 298 298 298 298 298 298 298 298 299 299 299 299 299 299 299 300 300 300 300 299 299 299 298 298 297 297 296 295 294 293 292 292 291 290 289 288 287 286 285 284 283 282 281 280 278 277 276 274 272
276 276 277 277 278 279 279 280 280 281 282 282 283 284 284 285 286 286 287 288 289 289 290 291 291 292 293 294 294 295 296 296 296 297 297 297 297 297 297 298 298 298 298 298 298 299 299 299 299 299 299 299 299 299 299 299 299 298 298 297 297 296 296 295 294 293 293 292 291 290 289 288 287 286 285 284 283 282 281 279 278 277 276 274 273 271
Height
10665 10664 10663 10663 10662 10660 10659 10659 10659 10658 10657 10657 10657 10656 10655 10654 10653 10653 10652 10651 10650 10649 10648 10647 10646 10645 10643 10642 10641 10640 10638 10637 10635 10634 10633 10631 10629 10627 10626 10623 10622 10619 10617 10615 10612 10609 10606 10603 10599 10596 10593 10590 10588 10585 10582 10580 10577 10574 10571 10568 10566 10563 10562 10557 10553 10551 10548 10546 10543 10540 10537 10535 10532 10528 10525 10521 10517 10513 10510 10505 10501 10497 10493 10490 10486 10483
10660 10660 10658 10658 10657 10656 10655 10654 10654 10654 10653 10653 10652 10651 10650 10650 10648 10648 10647 10646 10645 10644 10643 10642 10640 10640 10638 10637 10637 10635 10634 10633 10631 10630 10628 10627 10625 10622 10621 10619 10617 10615 10612 10610 10607 10604 10601 10597 10594 10590 10587 10585 10582 10580 10577 10575 10572 10570 10567 10564 10562 10559 10557 10553 10550 10547 10544 10542 10538 10536 10533 10530 10528 10525 10522 10518 10513 10510 10505 10501 10497 10493 10489 10485 10482 10478
10655 10654 10653 10652 10652 10651 10650 10649 10648 10649 10649 10648 10647 10647 10645 10644 10643 10643 10642 10641 10640 10639 10638 10637 10635 10634 10633 10632 10632 10630 10629 10628 10627 10625 10623 10622 10619 10617 10616 10614 10613 10610 10608 10605 10602 10598 10595 10592 10588 10585 10582 10579 10577 10575 10573 10570 10568 10565 10563 10560 10557 10555 10552 10548 10546 10543 10540 10537 10534 10532 10529 10527 10523 10521 10518 10515 10511 10507 10503 10498 10493 10489 10485 10481 10477 10474
10650 10649 10648 10647 10646 10645 10644 10643 10643 10643 10643 10643 10642 10641 10640 10639 10638 10637 10637 10636 10635 10633 10633 10632 10630 10629 10628 10627 10627 10625 10625 10623 10622 10620 10618 10616 10614 10612 10611 10609 10607 10605 10603 10600 10597 10593 10590 10586 10583 10580 10577 10574 10572 10570 10568 10566 10564 10562 10558 10556 10553 10550 10547 10545 10542 10539 10536 10533 10530 10527 10525 10522 10519 10517 10513 10510 10508 10505 10501 10497 10492 10487 10482 10477 10473 10470
10645 10643 10642 10641 10640 10639 10638 10638 10638 10637 10637 10637 10636 10635 10634 10633 10633 10632 10632 10631 10630 10629 10628 10627 10625 10625 10623 10622 10621 10620 10619 10617 10616 10615 10613 10611 10608 10607 10605 10603 10602 10600 10597 10594 10590 10587 10583 10580 10577 10575 10572 10570 10567 10565 10563 10561 10559 10557 10554 10552 10548 10546 10543 10540 10537 10535 10532 10528 10525 10523 10520 10517 10514 10512 10508 10505 10503 10500 10497 10493 10490 10485 10480 10475 10470 10467
10638 10637 10637 10635 10634 10633 10632 10632 10632 10632 10632 10631 10630 10630 10629 10628 10628 10627 10627 10626 10625 10624 10623 10622 10620 10619 10618 10617 10615 10614 10613 10612 10610 10608 10607 10605 10603 10601 10599 10597 10595 10593 10590 10587 10584 10581 10578 10575 10573 10570 10568 10565 10563 10560 10558 10556 10554 10552 10550 10547 10545 10542 10538 10536 10533 10530 10527 10524 10522 10518 10515 10512 10509 10507 10503 10500 10498 10495 10493 10489 10486 10482 10478 10473 10468 10463
10632 10631 10630 10629 10628 10627 10627 10627 10626 10626 10627 10627 10625 10624 10623 10623 10623 10622 10622 10621 10620 10619 10618 10617 10615 10613 10613 10611 10610 10608 10607 10606 10604 10603 10601 10600 10597 10595 10593 10590 10588 10586 10583 10581 10578 10576 10573 10570 10568 10565 10563 10561 10558 10556 10553 10551 10549 10547 10545 10543 10540 10538 10535 10532 10528 10526 10523 10520 10517 10514 10511 10507 10504 10501 10498 10495 10493 10490 10487 10484 10482 10478 10474 10470 10465 10460
10626 10625 10624 10623 10623 10622 10622 10621 10621 10622 10622 10622 10620 10619 10618 10618 10617 10617 10617 10616 10615 10614 10613 10611 10609 10608 10607 10605 10604 10602 10601 10600 10598 10597 10595 10593 10591 10589 10587 10584 10582 10580 10577 10575 10573 10571 10568 10566 10563 10561 10559 10557 10554 10552 10549 10547 10544 10542 10540 10538 10535 10533 10530 10528 10525 10522 10519 10516 10513 10510 10506 10503 10500 10497 10493 10490 10488 10485 10482 10479 10476 10473 10470 10466 10462 10458
10622 10620 10619 10618 10618 10618 10617 10617 10616 10617 10618 10617 10615 10614 10613 10612 10611 10610 10610 10610 10609 10608 10608 10606 10603 10602 10600 10599 10598 10597 10595 10593 10592 10591 10589 10587 10584 10582 10580 10578 10575 10574 10572 10570 10568 10567 10564 10562 10560 10557 10555 10552 10550 10547 10545 10542 10540 10537 10535 10533 10530 10528 10526 10523 10521 10518 10515 10512 10509 10505 10502 10498 10495 10492 10488 10486 10483 10480 10477 10474 10471 10468 10465 10461 10457 10454
10617 10617 10615 10614 10613 10614 10614 10613 10612 10612 10612 10611 10609 10608 10607 10607 10606 10605 10603 10603 10602 10602 10602 10600 10598 10596 10594 10592 10592 10590 10589 10587 10585 10584 10582 10580 10578 10576 10573 10572 10570 10569 10568 10566 10564 10562 10560 10558 10555 10553 10550 10548 10545 10543 10540 10538 10535 10533 10530 10528 10525 10523 10521 10518 10516 10513 10511 10508 10505 10502 10498 10495 10491 10488 10484 10481 10478 10475 10472 10469 10466 10463 10460 10456 10453 10449
10613 10612 10611 10610 10609 10609 10610 10609 10608 10607 10607 10605 10603 10602 10601 10601 10600 10600 10598 10597 10596 10596 10595 10595 10593 10591 10588 10586 10585 10583 10583 10581 10579 10577 10576 10574 10572 10570 10569 10567 10566 10565 10563 10562 10560 10558 10556 10554 10551 10548 10546 10543 10541 10538 10536 10533 10531 10528 10526 10523 10521 10518 10516 10513 10511 10508 10506 10503 10500 10497 10494 10490 10487 10483 10480 10477 10473 10471 10468 10465 10462 10458 10455 10452 10448 10445
10609 10608 10607 10606 10605 10605 10605 10604 10603 10603 10602 10600 10598 10596 10594 10594 10594 10594 10593 10592 10590 10590 10590 10588 10587 10585 10583 10581 10579 10577 10576 10575 10573 10572 10570 10569 10567 10566 10564 10563 10562 10560 10559 10557 10555 10553 10552 10550 10547 10544 10542 10539 10537 10534 10532 10529 10527 10524 10522 10519 10517 10514 10512 10509 10506 10503 10501 10498 10495 10492 10490 10487 10483 10479 10476 10472 10469 10466 10463 10460 10457 10453 10450 10447 10444 10440
10605 10604 10603 10602 10601 10600 10600 10600 10599 10598 10597 10595 10594 10592 10590 10588 10588 10588 10587 10586 10585 10585 10585 10583 10582 10580 10578 10577 10575 10573 10571 10570 10568 10567 10566 10565 10563 10562 10560 10558 10557 10555 10555 10553 10551 10548 10547 10545 10542 10539 10537 10535 10532 10530 10527 10525 10522 10519 10517 10514 10512 10509 10507 10504 10502 10498 10496 10493 10490 10487 10485 10482 10478 10475 10472 10468 10465 10462 10458 10455 10452 10449 10446 10443 10440 10436
10601 10600 10599 10598 10597 10595 10595 10595 10595 10593 10592 10590 10590 10588 10587 10585 10583 10583 10582 10580 10580 10580 10580 10579 10577 10575 10573 10572 10570 10569 10567 10565 10563 10563 10562 10560 10559 10558 10557 10554 10552 10550 10550 10548 10546 10543 10542 10540 10537 10534 10532 10530 10527 10525 10522 10520 10517 10515 10512 10510 10507 10505 10502 10499 10497 10493 10491 10488 10485 10482 10480 10477 10473 10470 10467 10463 10460 10457 10453 10450 10447 10444 10441 10438 10435 10432
10596 10595 10595 10593 10592 10591 10590 10590 10590 10588 10587 10586 10585 10584 10583 10582 10580 10579 10578 10577 10575 10575 10575 10574 10572 10570 10569 10568 10567 10566 10563 10561 10558 10557 10557 10555 10554 10553 10553 10550 10547 10545 10544 10543 10541 10538 10536 10535 10532 10530 10527 10525 10522 10520 10517 10515 10512 10510 10507 10505 10502 10500 10497 10494 10492 10488 10486 10483 10480 10477 10475 10472 10468 10465 10462 10459 10455 10452 10449 10446 10443 10440 10437 10433 10430 10427
10591 10591 10590 10588 10587 10586 10585 10585 10585 10584 10583 10582 10581 10580 10579 10577 10576 10575 10574 10573 10572 10571 10570 10569 10567 10565 10563 10563 10562 10562 10560 10557 10553 10552 10552 10550 10549 10548 10548 10546 10542 10539 10538 10537 10535 10533 10531 10529 10527 10524 10522 10520 10517 10514 10512 10510 10507 10505 10502 10500 10497 10495 10492 10489 10486 10483 10480 10478 10475 10472 10470 10467 10463 10460 10457 10454 10451 10447 10444 10441 10438 10435 10432 10429 10426 10423
10586 10586 10585 10584 10583 10582 10580 10581 10580 10580 10578 10578 10577 10576 10575 10573 10572 10571 10570 10568 10567 10567 10565 10564 10563 10562 10559 10557 10556 10556 10556 10553 10550 10547 10546 10545 10543 10543 10543 10541 10538 10534 10532 10531 10530 10528 10526 10523 10521 10518 10516 10513 10512 10509 10507 10504 10502 10500 10497 10495 10492 10489 10487 10483 10481 10478 10475 10473 10470 10467 10464 10461 10458 10455 10452 10449 10445 10442 10439 10435 10433 10430 10427 10424 10421 10418
10580 10580 10580 10579 10578 10577 10576 10576 10575 10575 10574 10573 10572 10571 10570 10569 10568 10567 10566 10564 10563 10562 10560 10559 10558 10557 10555 10553 10551 10550 10551 10550 10546 10542 10540 10539 10538 10537 10537 10535 10533 10529 10527 10525 10524 10523 10521 10518 10515 10513 10511 10508 10506 10503 10502 10499 10497 10494 10492 10489 10487 10484 10481 10478 10475 10473 10470 10467 10464 10462 10458 10455 10453 10450 10447 10443 10440 10437 10433 10430 10427 10425 10422 10419 10417 10414
10574 10575 10575 10574 10573 10572 10572 10571 10570 10570 10569 10568 10567 10567 10565 10564 10563 10562 10561 10560 10558 10557 10556 10555 10553 10552 10550 10548 10547 10545 10545 10545 10542 10538 10535 10534 10532 10531 10530 10530 10527 10524 10521 10520 10518 10517 10515 10512 10510 10507 10505 10503 10501 10498 10496 10493 10491 10488 10486 10483 10481 10478 10475 10473 10470 10467 10464 10462 10458 10455 10453 10450 10447 10443 10440 10437 10434 10431 10428 10425 10422 10419 10417 10414 10412 10409
10568 10568 10568 10568 10568 10567 10567 10565 10565 10565 10565 10563 10563 10562 10560 10559 10558 10557 10556 10555 10553 10552 10551 10550 10548 10546 10545 10543 10542 10540 10540 10540 10537 10533 10530 10529 10527 10526 10525 10525 10522 10518 10515 10513 10512 10512 10510 10507 10504 10502 10500 10498 10495 10493 10490 10488 10485 10483 10480 10478 10475 10472 10470 10467 10464 10461 10458 10455 10452 10450 10447 10443 10440 10437 10434 10431 10428 10425 10422 10418 10416 10413 10411 10408 10407 10405
10563 10563 10562 10563 10563 10563 10561 10560 10560 10560 10560 10559 10558 10557 10555 10554 10553 10552 10550 10549 10548 10547 10545 10544 10542 10541 10540 10539 10537 10535 10535 10534 10532 10528 10525 10523 10521 10520 10519 10519 10517 10513 10509 10507 10506 10505 10503 10502 10499 10497 10495 10492 10490 10487 10485 10482 10480 10477 10475 10472 10470 10467 10464 10462 10458 10455 10452 10449 10446 10443 10440 10437 10434 10431 10428 10425 10422 10418 10416 10413 10410 10408 10405 10403 10402 10400
10558 10557 10557 10557 10558 10558 10557 10556 10555 10555 10555 10554 10553 10551 10550 10549 10548 10547 10545 10543 10542 10541 10539 10538 10537 10535 10535 10533 10532 10530 10529 10528 10527 10524 10520 10517 10514 10512 10512 10513 10511 10507 10503 10502 10500 10499 10497 10495 10493 10492 10490 10487 10485 10482 10480 10477 10474 10472 10469 10467 10464 10461 10458 10455 10452 10449 10446 10443 10440 10437 10433 10430 10428 10425 10422 10419 10416 10413 10410 10407 10405 10402 10400 10398 10396 10395
10553 10552 10552 10552 10552 10552 10552 10551 10550 10550 10549 10548 10547 10546 10545 10543 10542 10541 10539 10538 10537 10535 10533 10532 10531 10530 10529 10528 10526 10524 10523 10522 10521 10519 10515 10512 10508 10506 10505 10506 10504 10501 10497 10495 10495 10493 10492 10489 10487 10486 10484 10482 10479 10477 10474 10472 10469 10466 10463 10461 10458 10455 10453 10450 10447 10443 10440 10437 10433 10430 10427 10424 10421 10418 10415 10413 10410 10407 10405 10402 10400 10397 10395 10393 10391 10390
10547 10547 10546 10546 10546 10545 10545 10545 10544 10543 10543 10542 10542 10540 10539 10538 10537 10535 10533 10532 10531 10530 10528 10527 10525 10523 10522 10521 10520 10518 10516 10515 10515 10513 10510 10506 10502 10500 10498 10499 10498 10495 10490 10488 10488 10488 10486 10483 10481 10479 10478 10476 10473 10471 10469 10467 10463 10461 10458 10455 10452 10450 10447 10443 10440 10437 10434 10430 10427 10424 10421 10418 10415 10412 10409 10407 10404 10402 10399 10397 10395 10392 10390 10388 10387 10385
10541 10540 10540 10540 10540 10539 10539 10538 10538 10537 10537 10536 10535 10534 10533 10532 10530 10529 10528 10527 10525 10524 10522 10521 10518 10517 10515 10514 10513 10511 10508 10508 10508 10507 10504 10500 10497 10493 10492 10492 10492 10489 10485 10482 10482 10481 10480 10477 10474 10473 10472 10470 10468 10465 10463 10460 10458 10455 10453 10450 10447 10443 10440 10437 10434 10431 10427 10424 10421 10418 10415 10412 10408 10405 10403 10400 10398 10396 10394 10392 10390 10387 10385 10383 10382 10380
10535 10535 10535 10534 10534 10533 10533 10532 10532 10531 10530 10530 10529 10528 10527 10525 10524 10523 10521 10520 10518 10518 10517 10514 10512 10510 10508 10508 10507 10504 10502 10502 10501 10500 10498 10496 10492 10487 10484 10485 10485 10483 10479 10476 10475 10474 10473 10470 10468 10465 10465 10463 10462 10460 10457 10455 10452 10449 10447 10444 10441 10437 10434 10430 10427 10423 10420 10417 10415 10412 10408 10405 10402 10400 10397 10395 10392 10390 10388 10387 10385 10383 10381 10379 10377 10376
10530 10529 10529 10528 10528 10528 10527 10527 10526 10525 10525 10524 10523 10522 10521 10520 10518 10517 10514 10512 10512 10512 10510 10507 10505 10503 10502 10501 10499 10498 10496 10495 10494 10493 10492 10490 10487 10482 10478 10478 10478 10477 10473 10470 10468 10467 10467 10465 10462 10460 10458 10457 10455 10453 10452 10448 10445 10443 10440 10437 10435 10431 10427 10424 10420 10417 10413 10410 10407 10405 10402 10399 10397 10393 10391 10388 10387 10385 10383 10381 10379 10377 10376 10374 10373 10371
10523 10523 10523 10523 10522 10522 10521 10520 10520 10519 10519 10518 10517 10517 10515 10515 10513 10510 10507 10506 10506 10506 10503 10501 10499 10498 10496 10494 10492 10491 10490 10488 10487 10487 10486 10485 10481 10477 10473 10473 10472 10470 10468 10465 10462 10460 10459 10458 10457 10455 10453 10450 10448 10446 10445 10442 10440 10437 10433 10431 10428 10424 10420 10417 10413 10410 10406 10403 10400 10398 10395 10393 10390 10388 10385 10383 10381 10379 10378 10376 10374 10372 10371 10369 10368 10367
10518 10518 10517 10517 10517 10516 10515 10515 10514 10513 10513 10512 10512 10510 10510 10508 10507 10505 10502 10500 10500 10499 10497 10494 10493 10492 10490 10488 10486 10484 10482 10482 10481 10481 10481 10478 10474 10470 10468 10468 10467 10464 10462 10460 10457 10452 10450 10450 10450 10450 10448 10445 10441 10438 10437 10435 10433 10430 10427 10423 10420 10417 10413 10410 10406 10402 10399 10396 10393 10391 10388 10386 10384 10382 10380 10378 10376 10374 10372 10371 10369 10367 10366 10365 10363 10362
10512 10512 10511 10511 10510 10510 10510 10509 10508 10508 10507 10507 10505 10504 10503 10502 10501 10499 10497 10495 10494 10493 10490 10488 10487 10485 10484 10483 10480 10477 10475 10473 10474 10475 10476 10473 10468 10463 10462 10462 10460 10457 10456 10455 10453 10447 10442 10439 10440 10442 10442 10440 10436 10432 10429 10427 10425 10423 10420 10416 10413 10409 10405 10402 10398 10395 10392 10389 10387 10384 10382 10380 10378 10376 10374 10372 10371 10369 10367 10366 10364 10362 10361 10360 10358 10357
10506 10505 10505 10505 10505 10504 10504 10503 10503 10502 10501 10500 10499 10498 10497 10495 10494 10493 10491 10490 10488 10487 10484 10482 10480 10478 10478 10477 10475 10472 10468 10465 10466 10468 10469 10467 10462 10457 10455 10455 10454 10450 10448 10448 10448 10445 10439 10433 10431 10430 10432 10432 10430 10426 10423 10420 10418 10415 10412 10408 10405 10401 10397 10395 10392 10388 10385 10383 10380 10378 10376 10373 10372 10370 10368 10367 10365 10363 10362 10361 10359 10358 10356 10355 10353 10352
10500 10500 10499 10498 10498 10498 10498 10497 10497 10495 10495 10493 10493 10492 10490 10489 10488 10487 10485 10483 10482 10480 10478 10476 10473 10472 10471 10470 10469 10467 10463 10460 10459 10460 10461 10460 10456 10452 10449 10449 10448 10445 10442 10441 10441 10440 10436 10432 10427 10423 10423 10422 10421 10419 10417 10413 10410 10407 10404 10401 10398 10393 10390 10387 10384 10381 10378 10376 10374 10372 10370 10368 10366 10364 10363 10361 10360 10358 10357 10356 10355 10353 10352 10350 10349 10348
10494 10493 10493 10492 10492 10492 10491 10490 10490 10489 10488 10487 10486 10485 10483 10482 10481 10480 10478 10477 10475 10473 10472 10470 10468 10465 10463 10463 10462 10460 10457 10455 10453 10453 10453 10453 10449 10445 10443 10442 10441 10439 10436 10434 10432 10431 10429 10427 10422 10419 10417 10415 10413 10411 10409 10407 10403 10400 10397 10393 10390 10386 10382 10380 10377 10374 10372 10370 10368 10366 10364 10362 10360 10358 10357 10355 10354 10353 10352 10351 10350 10348 10347 10345 10344 10343
10488 10487 10487 10486 10485 10485 10484 10483 10483 10482 10481 10480 10479 10478 10477 10475 10474 10473 10471 10470 10468 10467 10465 10463 10462 10460 10457 10455 10453 10452 10450 10448 10447 10447 10447 10446 10443 10440 10437 10435 10434 10432 10431 10428 10425 10422 10420 10418 10415 10412 10410 10407 10404 10402 10400 10398 10396 10393 10388 10385 10382 10379 10375 10372 10370 10367 10365 10363 10362 10360 10358 10357 10355 10353 10352 10350 10349 10348 10347 10346 10345 10343 10342 10341 10340 10338
10481 10480 10480 10479 10479 10478 10477 10477 10476 10475 10474 10473 10472 10471 10470 10468 10467 10466 10464 10463 10462 10460 10458 10457 10455 10453 10452 10450 10448 10445 10442 10440 10440 10440 10440 10438 10436 10433 10431 10428 10426 10425 10424 10422 10417 10414 10412 10410 10407 10404 10402 10399 10396 10393 10390 10389 10388 10385 10381 10378 10375 10372 10368 10366 10363 10361 10359 10357 10356 10354 10353 10351 10350 10348 10347 10345 10344 10343 10342 10341 10340 10338 10338 10337 10335 10334
10474 10473 10473 10472 10472 10472 10470 10469 10468 10468 10467 10465 10464 10463 10463 10462 10460 10458 10457 10456 10454 10453 10451 10450 10448 10447 10446 10444 10442 10440 10437 10434 10432 10432 10432 10430 10429 10427 10424 10421 10418 10417 10416 10414 10410 10407 10404 10401 10398 10395 10392 10390 10387 10384 10382 10380 10378 10376 10373 10370 10367 10365 10362 10360 10357 10355 10353 10351 10350 10348 10347 10345 10344 10343 10342 10340 10339 10338 10337 10336 10335 10334 10333 10332 10331 10330
10468 10467 10466 10465 10465 10464 10463 10462 10461 10460 10460 10458 10457 10456 10455 10454 10453 10452 10450 10448 10447 10445 10444 10443 10441 10440 10438 10437 10436 10433 10431 10428 10427 10425 10423 10422 10421 10420 10417 10414 10411 10408 10407 10406 10403 10400 10397 10393 10390 10386 10383 10380 10378 10376 10373 10372 10370 10367 10365 10363 10361 10358 10355 10353 10351 10349 10347 10345 10343 10342 10341 10340 10338 10337 10336 10335 10334 10333 10332 10331 10330 10329 10328 10327 10326 10325
10460 10460 10458 10458 10458 10457 10456 10455 10453 10453 10452 10452 10450 10449 10448 10447 10445 10444 10443 10441 10440 10438 10437 10435 10434 10433 10431 10430 10428 10427 10424 10422 10420 10418 10416 10415 10413 10412 10410 10407 10404 10401 10399 10398 10396 10393 10390 10386 10382 10378 10375 10372 10369 10367 10365 10364 10362 10360 10357 10355 10354 10352 10350 10347 10345 10343 10341 10339 10338 10337 10335 10334 10333 10332 10331 10330 10329 10328 10327 10326 10325 10325 10323 10322 10322 10321
10453 10452 10452 10451 10450 10450 10449 10448 10447 10445 10445 10444 10443 10442 10440 10440 10438 10437 10435 10434 10433 10432 10430 10428 10427 10426 10425 10423 10421 10419 10417 10415 10413 10411 10409 10407 10405 10403 10402 10400 10397 10394 10392 10390 10387 10385 10382 10378 10375 10371 10367 10365 10362 10359 10357 10356 10354 10352 10350 10348 10347 10345 10343 10342 10339 10337 10335 10333 10332 10331 10330 10328 10328 10327 10325 10325 10324 10323 10322 10321 10320 10320 10318 10318 10317 10316
10445 10445 10444 10443 10443 10443 10442 10441 10440 10438 10438 10437 10436 10435 10433 10432 10431 10430 10428 10427 10426 10425 10423 10422 10421 10419 10417 10416 10414 10412 10410 10408 10405 10403 10402 10400 10398 10396 10394 10392 10390 10387 10385 10382 10379 10376 10373 10370 10367 10363 10360 10357 10355 10352 10350 10348 10347 10345 10343 10342 10340 10338 10337 10336 10333 10331 10329 10328 10327 10325 10324 10323 10322 10322 10320 10320 10318 10318 10317 10316 10315 10315 10314 10313 10312 10312
10438 10437 10437 10436 10435 10435 10435 10433 10433 10432 10431 10430 10428 10427 10426 10425 10424 10423 10421 10419 10418 10417 10416 10415 10414 10412 10410 10408 10406 10405 10403 10401 10398 10396 10394 10392 10390 10388 10387 10385 10382 10380 10377 10375 10372 10368 10365 10363 10360 10356 10352 10350 10348 10346 10343 10342 10340 10338 10337 10335 10333 10332 10331 10330 10328 10325 10323 10322 10321 10320 10318 10317 10317 10316 10315 10314 10313 10312 10312 10311 10310 10310 10309 10308 10308 10307
10430 10430 10429 10428 10428 10428 10427 10427 10425 10425 10423 10422 10422 10420 10418 10417 10417 10415 10413 10412 10410 10409 10408 10408 10407 10405 10403 10400 10398 10396 10394 10393 10392 10389 10387 10385 10382 10380 10378 10377 10375 10372 10370 10367 10363 10360 10357 10355 10352 10349 10346 10343 10342 10339 10337 10335 10333 10332 10331 10329 10327 10326 10325 10323 10322 10320 10318 10316 10315 10314 10313 10312 10311 10310 10309 10308 10308 10307 10307 10306 10305 10305 10304 10303 10303 10303
10423 10422 10422 10422 10421 10420 10420 10419 10418 10417 10416 10415 10414 10412 10411 10410 10410 10408 10407 10405 10403 10402 10401 10400 10399 10398 10396 10393 10390 10388 10386 10385 10383 10381 10379 10377 10375 10373 10371 10368 10367 10364 10362 10358 10355 10352 10348 10346 10344 10342 10339 10337 10335 10333 10330 10328 10327 10325 10324 10323 10322 10320 10318 10316 10315 10314 10312 10310 10309 10308 10307 10307 10305 10305 10304 10303 10302 10302 10301 10301 10300 10300 10299 10299 10298 10298
10415 10415 10414 10414 10413 10413 10413 10412 10411 10410 10408 10408 10407 10405 10403 10403 10402 10401 10400 10398 10396 10394 10393 10392 10392 10390 10388 10385 10383 10380 10378 10377 10375 10372 10370 10369 10367 10365 10363 10360 10358 10355 10353 10350 10347 10344 10341 10338 10336 10334 10332 10330 10328 10326 10324 10322 10321 10319 10318 10317 10315 10314 10312 10310 10309 10308 10306 10304 10303 10302 10302 10301 10300 10299 10298 10297 10297 10297 10296 10295 10295 10295 10294 10294 10293 10293
10408 10407 10407 10406 10406 10406 10405 10405 10403 10402 10402 10401 10400 10398 10397 10396 10395 10393 10392 10390 10388 10387 10385 10384 10383 10383 10381 10378 10375 10372 10371 10369 10367 10364 10362 10360 10358 10357 10354 10352 10350 10347 10344 10342 10339 10337 10334 10331 10328 10327 10325 10323 10322 10320 10318 10316 10315 10313 10312 10310 10309 10308 10306 10305 10303 10302 10300 10298 10297 10297 10296 10295 10294 10293 10292 10292 10292 10291 10290 10290 10290 10290 10289 10289 10288 10288
10400 10399 10398 10398 10398 10398 10398 10397 10396 10395 10395 10393 10392 10391 10390 10388 10387 10386 10384 10382 10381 10380 10378 10377 10375 10374 10373 10370 10368 10365 10363 10361 10358 10355 10353 10352 10350 10348 10345 10343 10341 10338 10336 10333 10331 10328 10327 10325 10322 10320 10318 10316 10314 10313 10312 10310 10308 10307 10305 10304 10303 10302 10300 10298 10297 10296 10294 10293 10292 10290 10290 10289 10288 10288 10287 10286 10286 10285 10285 10285 10285 10284 10284 10284 10283 10283
10392 10391 10391 10390 10390 10390 10389 10389 10388 10388 10387 10386 10384 10383 10382 10381 10380 10378 10376 10374 10373 10372 10370 10368 10367 10365 10364 10362 10360 10358 10356 10353 10351 10348 10345 10343 10342 10339 10337 10335 10332 10330 10328 10326 10323 10321 10319 10317 10315 10313 10312 10309 10307 10305 10304 10303 10302 10301 10299 10298 10297 10295 10293 10292 10290 10290 10288 10287 10285 10285 10284 10283 10283 10282 10281 10281 10280 10280 10280 10280 10279 10279 10279 10278 10278 10278
10385 10383 10383 10382 10382 10382 10381 10380 10380 10380 10379 10378 10376 10375 10373 10372 10371 10370 10368 10366 10364 10363 10362 10360 10358 10357 10355 10353 10352 10350 10348 10347 10343 10340 10338 10335 10333 10331 10329 10327 10324 10322 10320 10318 10316 10314 10312 10310 10309 10307 10305 10303 10300 10298 10297 10297 10295 10294 10293 10292 10290 10288 10287 10285 10285 10283 10282 10281 10280 10279 10278 10277 10277 10276 10275 10275 10275 10275 10274 10274 10274 10273 10273 10273 10273 10273
10377 10376 10375 10375 10373 10373 10373 10372 10372 10371 10370 10369 10368 10366 10365 10363 10362 10361 10360 10358 10357 10355 10353 10352 10350 10348 10347 10345 10343 10342 10340 10338 10336 10333 10330 10328 10326 10323 10321 10318 10317 10315 10312 10310 10308 10307 10305 10303 10302 10300 10298 10297 10295 10292 10290 10289 10288 10287 10286 10285 10283 10282 10281 10279 10278 10277 10277 10275 10274 10273 10272 10272 10271 10270 10270 10270 10269 10269 10269 10268 10268 10268 10268 10268 10268 10268
10369 10368 10367 10366 10365 10365 10364 10363 10363 10362 10362 10360 10359 10358 10357 10355 10353 10352 10351 10350 10348 10347 10345 10343 10342 10340 10338 10337 10335 10333 10332 10330 10328 10325 10323 10320 10318 10317 10313 10311 10309 10307 10305 10302 10300 10299 10298 10296 10293 10292 10292 10290 10288 10287 10284 10282 10281 10280 10279 10278 10277 10276 10275 10273 10272 10271 10270 10269 10268 10267 10266 10265 10265 10264 10264 10263 10263 10263 10263 10263 10263 10262 10262 10263 10263 10263
10360 10360 10358 10358 10357 10357 10355 10355 10354 10353 10353 10352 10351 10349 10348 10347 10345 10344 10343 10341 10340 10338 10336 10335 10333 10332 10330 10328 10327 10325 10323 10321 10320 10318 10315 10313 10312 10310 10307 10305 10302 10300 10298 10295 10293 10292 10290 10288 10286 10284 10283 10282 10282 10281 10278 10276 10274 10273 10272 10270 10270 10269 10268 10267 10265 10265 10264 10263 10262 10261 10260 10259 10258 10258 10258 10258 10257 10257 10257 10257 10257 10257 10257 10257 10257 10258